Regional Weather Roundup
Issued by NWS

Home | Current Version | Previous Version | Graphics & Text | Print | Product List | Glossary On
Versions: 1 2 3 4 5 6 7 8 9 10 11 12 13 14 15 16 17 18 19 20 21 22 23 24 25 26 27
000
ASUS45 KSLC 300310
RWRUT

UTAH REGIONAL WEATHER ROUNDUP
NATIONAL WEATHER SERVICE SALT LAKE CITY UT
900 PM MDT SUN MAY 29 2016

UTZ001>011-023>025-300400-

NORTHERN UTAH

CITY           SKY/WX    TMP DP  RH WIND       PRES   REMARKS
BRIGHAM CITY     N/A     66  40  37 N17       30.06R
HILL AFB       CLOUDY    67  39  34 S17       30.02F
LOGAN          LGT RAIN  57  49  74 NE17G29   30.08R
OGDEN          CLOUDY    69  39  33 W10G26    30.03R
PROVO AIRPORT  CLOUDY    63  46  55 CALM      30.12R
SALT LAKE CITY CLOUDY    68  44  42 S14       30.04R
VERNAL         CLOUDY    59  42  53 CALM      30.10R
WENDOVER       CLOUDY    72  37  28 E8        30.00S
HEBER CITY     RAIN      59  37  44 E3        30.15R
WEST JORDAN    CLOUDY    59  48  67 S7        30.09R

$$

UTZ012>022-026-027-300400-

SOUTHERN/CENTRAL UTAH

CITY           SKY/WX    TMP DP  RH WIND       PRES   REMARKS
BLANDING       PTCLDY    68  24  19 N8        30.12F
BRYCE CANYON   PTCLDY    50  26  39 SE8       30.17R
CEDAR CITY     CLOUDY    63  35  35 N8        30.08R
DELTA          CLOUDY    63  37  39 E9        30.06F
HANKSVILLE     CLEAR     73  30  20 N8        30.00R
MILFORD        MOCLDY    62  36  37 NW7       30.06R
MOAB/CYNLANDS  PTCLDY    75  32  20 N3        29.98R
PRICE          CLOUDY    65  29  25 CALM      30.08F
ST GEORGE      CLOUDY    86  28  12 W13       29.88S
KANAB          PTCLDY    75  25  15 W9        30.02R

$$

REGIONAL REPORTS     COLORADO/ARIZONA

CITY           SKY/WX    TMP DP  RH WIND       PRES   REMARKS
CRAIG, CO      CLOUDY    52  42  69 CALM      30.18S
GRAND JUNCTION PTCLDY    68  34  28 NE10      30.03R
RIFLE          CLOUDY    63  37  38 NW5       30.11R
MONTROSE       CLEAR     64  36  35 S8        30.11R
CORTEZ         CLEAR     63  29  27 CALM      30.06R
PAGE, AZ       CLEAR     80  20  10 W3        29.93R
GRAND CANYON   PTCLDY    62  11  13 SW5       30.14R
KINGMAN        CLEAR     78  20  11 SW12      29.95R
FLAGSTAFF      PTCLDY    55  18  23 SW6       30.19R

$$

REGIONAL REPORTS    NEVADA/IDAHO/WYOMING

CITY           SKY/WX    TMP DP  RH WIND       PRES   REMARKS
LAS VEGAS, NV  PTCLDY    89  20   8 S7        29.80S
ELY            MOCLDY    58  37  45 SE6       30.11S
ELKO           MOCLDY    70  39  32 CALM      30.02S
POCATELLO, ID  CLOUDY    63  40  42 S21G28    30.02R
BURLEY         CLOUDY    62  45  53 S7        29.99F
EVANSTON, WY   LGT RAIN  53  38  56 S12G23    30.17R
ROCK SPRINGS   CLOUDY    57  36  45 SW9       30.15R
KEMMERER         N/A     54  37  54 SE7       30.16F

$$




USA.gov is the U.S. government's official web portal to all federal, state and local government web resources and services.